User: anonymous   Login
Location: Mount Graham
(32.7016°N, 109.8912°W)
Time: 00:40:47
(UTC-07:00)
Language:

Cosmos 1340 - Orbit

View from above orbital plane
View from above orbital plane
View from above satellite
View from above satellite

Ground track
Ground track

The orbit data is extracted from the following two-line orbital elements,

1 13067U 82013A   14298.15843789  .00007961  00000-0  43898-3 0  5073
2 13067 081.1906 177.3997 0003312 155.7021 008.1643 15.13860033781308
Epoch (UTC): 25 October 2014 03:48:09
Eccentricity: 0.0003312
inclination: 81.1906°
perigee height: 522 km
apogee height: 527 km
right ascension of ascending node: 177.3997°
argument of perigee: 155.7021°
revolutions per day: 15.13860033
mean anomaly at epoch: 8.1643°
orbit number at epoch: 78130

The dashed part of the orbit path shows where the satellite is in the earth's shadow,  

DLR